{"data":{"norad_id":51631,"intl_designator":"2022-012K","name":"ONEWEB-0434","alt_names":[],"object_type":"PAYLOAD","status":"ACTIVE","operator":null,"country":"UK","launch_date":"2022-02-10","launch_site_code":"FRGUI","launch_vehicle":null,"mission":null,"orbit_class":"UNKNOWN","rcs_meters":null,"size_class":null,"mass_kg":null,"dimensions":null,"purposes":["comms"],"wikipedia_slug":null,"has_3d_model":false,"image_url":null,"decayed_at":null,"tle_current":{"epoch":"2026-09-20T00:34:56.554752Z","epoch_age_seconds":66892,"freshness":"FRESH","line1":"1 51631U 22012K   26263.02426568 -.00000191  00000+0 -58240-3 0  9999","line2":"2 51631  87.8903  17.4137 0002225 113.4752 246.6609 13.10368984221742","mean_motion":13.10368984,"eccentricity":0.0002225,"inclination_deg":87.8903,"raan_deg":17.4137,"arg_perigee_deg":113.4752,"mean_anomaly_deg":246.6609,"bstar":-0.0005824,"rev_number":22174,"period_min":109.89271095263,"perigee_km":1220.0410002998,"apogee_km":1223.4229419919,"semimajor_km":7599.8689711459,"source":"CELESTRAK","updated_at":"2026-09-20T09:00:44.709484Z"}}}